Fort Smith, AR

10:47 PM CST on January 22, 2018 (GMT -0600)
Fort Smith Regional

Weather History for KFSM - August, 2012

Change the Weather History Date:

Saturday, August 18, 2012

  Actual Average Record
Temperature  
Mean Temperature 75 °F 82 °F  
Max Temperature 80 °F 94 °F 104 °F (1999)
Min Temperature 70 °F 71 °F 58 °F (1992)
Cooling Degree Days 10 17  
Month to date cooling degree days 386 322  
Year to date cooling degree days 2214 1487  
Since 1 June cooling degree days 1645 1243  
Growing Degree Days 25 (Base 50)    
Moisture  
Dew Point 68 °F    
Average Humidity 82    
Maximum Humidity 100    
Minimum Humidity 64    
Precipitation  
Precipitation 0.55 in 0.08 in 1.96 in (1915)
Month to date precipitation 0.87 1.54  
Year to date precipitation 25.15 28.31  
Sea Level Pressure  
Sea Level Pressure 29.92 in    
Wind  
Wind Speed 6 mph (East)    
Max Wind Speed 20 mph    
Max Gust Speed 26 mph    
Visibility 9 miles    
Events Rain , Thunderstorm    
T = Trace of Precipitation, MM = Missing Value Source: NWS Daily Summary

Daily Weather History Graph

Daily Weather History Graph

Search for Another Location

Airport or City:

Trip Planner

Search our weather history database for the weather conditions in past years. The results will help you decide how hot, cold, wet, or windy it might be!

Date:

Astronomy

Aug. 18, 2012 Rise Set
Actual Time 6:39 AM CDT 8:02 PM CDT
Civil Twilight 6:12 AM CDT 8:28 PM CDT
Nautical Twilight 5:40 AM CDT 9:00 PM CDT
Astronomical Twilight 5:07 AM CDT 9:33 PM CDT
Moon 7:43 AM CDT (8/18) 8:24 PM CDT (8/18)
Length of Visible Light 14h 15m
Length of Day
13h 22m
New Moon, 1% of the Moon is Illuminated
Aug 18
New Moon
Aug 24
First Quarter
Aug 31
Full
Sep 8
Last Quarter
Sep 15
New

Hourly Weather History & Observations

Time (CDT) Temp. Dew Point Humidity Pressure Visibility Wind Dir Wind Speed Gust Speed Precip Events Conditions
12:53 AM 77.0 °F 64.9 °F 66% 29.95 in 10.0 mi ENE 9.2 mph - N/A   Overcast
1:53 AM 75.9 °F 64.9 °F 69% 29.92 in 10.0 mi ENE 8.1 mph - N/A   Partly Cloudy
2:53 AM 75.9 °F 66.0 °F 71% 29.92 in 10.0 mi ENE 6.9 mph - N/A   Mostly Cloudy
3:53 AM 75.0 °F 66.0 °F 73% 29.91 in 10.0 mi NE 9.2 mph - N/A   Mostly Cloudy
4:22 AM 73.4 °F 68.0 °F 83% 29.93 in 6.0 mi NE 10.4 mph - 0.04 in Rain , Thunderstorm Rain
4:47 AM 71.6 °F 66.2 °F 83% 29.96 in 1.8 mi Variable 6.9 mph 25.3 mph 0.12 in Rain , Thunderstorm Heavy Thunderstorms and Rain
4:53 AM 71.1 °F 66.9 °F 87% 29.93 in 1.0 mi ESE 12.7 mph 18.4 mph 0.33 in Rain , Thunderstorm Heavy Thunderstorms and Rain
5:00 AM 69.8 °F 68.0 °F 94% 29.94 in 2.0 mi ESE 5.8 mph 18.4 mph 0.14 in Rain , Thunderstorm Light Thunderstorms and Rain
5:07 AM 71.6 °F 68.0 °F 88% 29.95 in 9.0 mi SE 5.8 mph - 0.14 in Rain , Thunderstorm Light Thunderstorms and Rain
5:37 AM 69.8 °F 69.8 °F 100% 29.94 in 10.0 mi SSE 5.8 mph - 0.19 in Rain Light Rain
5:53 AM 71.1 °F 69.1 °F 93% 29.92 in 10.0 mi East 3.5 mph - 0.19 in Rain Light Rain
6:53 AM 71.1 °F 68.0 °F 90% 29.95 in 10.0 mi SE 3.5 mph - 0.00 in Rain Light Rain
7:53 AM 70.0 °F 69.1 °F 97% 29.98 in 9.0 mi Calm Calm - 0.00 in Rain Light Rain
8:33 AM 71.6 °F 69.8 °F 94% 29.98 in 10.0 mi Calm Calm - 0.01 in Rain Light Rain
8:53 AM 71.1 °F 68.0 °F 90% 29.96 in 9.0 mi ESE 5.8 mph - 0.01 in Rain Light Rain
9:51 AM 73.4 °F 69.8 °F 88% 29.97 in 10.0 mi ESE 4.6 mph - 0.01 in   Scattered Clouds
9:53 AM 73.0 °F 69.1 °F 87% 29.95 in 10.0 mi East 5.8 mph - 0.01 in   Partly Cloudy
10:04 AM 73.4 °F 69.8 °F 88% 29.96 in 10.0 mi ESE 9.2 mph - N/A   Mostly Cloudy
10:53 AM 75.0 °F 69.1 °F 82% 29.95 in 10.0 mi ESE 6.9 mph - N/A   Mostly Cloudy
11:53 AM 75.0 °F 68.0 °F 79% 29.93 in 10.0 mi East 6.9 mph - N/A   Mostly Cloudy
12:53 PM 75.9 °F 66.9 °F 74% 29.91 in 10.0 mi ENE 4.6 mph - N/A   Mostly Cloudy
1:53 PM 79.0 °F 66.9 °F 66% 29.93 in 10.0 mi WNW 8.1 mph - N/A   Mostly Cloudy
2:53 PM 77.0 °F 66.9 °F 71% 29.90 in 10.0 mi West 6.9 mph - 0.00 in Rain Light Rain
3:53 PM 75.0 °F 69.1 °F 82% 29.91 in 10.0 mi West 10.4 mph - 0.00 in Rain Light Rain
4:53 PM 73.0 °F 66.9 °F 81% 29.83 in 10.0 mi South 8.1 mph - 0.01 in Rain Light Rain
5:53 PM 75.0 °F 68.0 °F 79% 29.83 in 10.0 mi NNW 6.9 mph - 0.00 in   Mostly Cloudy
6:50 PM 73.4 °F 68.0 °F 83% 29.85 in 10.0 mi North 11.5 mph - N/A   Mostly Cloudy
6:53 PM 73.9 °F 68.0 °F 82% 29.83 in 10.0 mi North 10.4 mph - N/A   Mostly Cloudy
7:53 PM 73.9 °F 68.0 °F 82% 29.83 in 10.0 mi Calm Calm - N/A   Clear
8:53 PM 72.0 °F 68.0 °F 87% 29.87 in 10.0 mi Calm Calm - N/A   Clear
9:53 PM 71.1 °F 66.9 °F 87% 29.89 in 10.0 mi WSW 3.5 mph - N/A   Clear
10:53 PM 70.0 °F 68.0 °F 93% 29.91 in 10.0 mi West 5.8 mph - N/A   Partly Cloudy
11:53 PM 71.1 °F 68.0 °F 90% 29.91 in 10.0 mi West 5.8 mph - N/A   Overcast